INTELSAT 33E DEB, 64403

Orbit data source: Space-Track

INTELSAT 33E DEB, 64403 is space debris in GEO originally from a launch on Wed, 24 Aug 2016 UTC launched from the French Guiana (FRGUI). Debris objects in space refer to the collection of defunct objects orbiting the Earth. Examples of debris include non-operational satellites, rocket bodies, and fragments generated from explosions, collisions, or faulty payload assembly.

Loading next visibility...
Identifier
64403, 2016-053AH
Orbit
GEO
Country
Flag of USUS / ITSO
Related business
Manufacturer
Boeing/ES
Mission
Spacecraft
Bus & Motor
Unknown
Mass
Unknown
Launch date (UTC)
2016-08-24 (10 years ago)
Launch vehicle
Unknown
Launch site
French Guiana (FRGUI)
Object type
Payload
Rocket body
Debris
Shape & HBR
Unknown shape, 1.1 m
Radar Cross Section
RCS unknown

Expand to show TLE details & history
Last TLE update: 1 day ago

TLE from 1 day ago
0 INTELSAT 33E DEB
1 64403U 16053AH  26165.58017862 -.00000238  00000-0  00000+0 0  9992
2 64403   1.4148  66.0749 0064353 347.0172  11.7656  1.00717254  5934
Epoch: 2026-06-14T13:55Z
TLE epoch observation values (Epoch: 2026-06-14T13:55:27.432Z)
Latitude
Longitude
-46.73703°
Altitude
35,395.827 km
Speed
3.099 km/s
True Right ascension
04h 20m 01s
True Declination
0° 00' 00"
Sunlit
Object was in daylight at epoch
Visualization orbit readout
Latitude
Unknown
Longitude
Unknown
Altitude
Unknown
Speed
Unknown
Apparent Right ascension
Unknown
Apparent Declination
Unknown
Sunlit
N/A
Visualization observer readout
Local Sidereal Time
02:31:53
Azimuth
Unknown
Elevation
Unknown
Doppler factor
Unknown
Orbital elements
Apogee altitude
35,933.796 km
Perigee altitude
35,392.698 km
Semi-major axis
42,041.384 km
Eccentricity
0.00644
Inclination
1.4148°
RAAN
66.0749°
Arg. of periapsis
347.0172°
True anomaly
11.91716°
Mean anomaly
11.7656°
Eccentric anomaly
11.84126°
Mean motion
0.25178 °/min
Orbital period
1,429.8 mins
BSTAR
0
Loading maneuver chart data...
Computing Atmospheric mass density...
Loading historical data...
Loading historical data...
Loading historical data...
Loading historical data...
Loading historical data...
Loading historical data...
Loading historical data...

Documentation

Showing up to 5 results
|